Time,TemperatureF,DewpointF,PressureIn,WindDirection,WindDirectionDegrees,WindSpeedMPH,WindSpeedGustMPH,Humidity,HourlyPrecipIn,Conditions,Clouds,dailyrainin,SoftwareType,DateUTC
2013-03-02 00:01:00,25.7,19.0,30.12,ENE,57,2.0,-999.0,76,-99.99,,,0.00,weatherlink.com 1.10,2013-03-02 05:01:00,
2013-03-02 00:16:00,25.9,19.0,30.12,NE,46,2.0,-999.0,76,-99.99,,,0.00,weatherlink.com 1.10,2013-03-02 05:16:00,
2013-03-02 00:31:00,25.9,19.0,30.12,NE,46,3.0,-999.0,76,-99.99,,,0.00,weatherlink.com 1.10,2013-03-02 05:31:00,
2013-03-02 00:46:00,25.8,19.0,30.12,NNE,17,2.0,-999.0,76,-99.99,,,0.00,weatherlink.com 1.10,2013-03-02 05:46:00,
2013-03-02 01:02:00,25.9,20.0,30.11,NNE,14,0.0,-999.0,77,-99.99,,,0.00,weatherlink.com 1.10,2013-03-02 06:02:00,
2013-03-02 01:17:00,26.0,19.0,30.11,NE,40,3.0,-999.0,76,-99.99,,,0.00,weatherlink.com 1.10,2013-03-02 06:17:00,
2013-03-02 01:32:00,26.1,20.0,30.11,NE,43,5.0,-999.0,76,-99.99,,,0.00,weatherlink.com 1.10,2013-03-02 06:32:00,
2013-03-02 01:47:00,26.1,20.0,30.12,NE,42,3.0,-999.0,76,-99.99,,,0.00,weatherlink.com 1.10,2013-03-02 06:47:00,
2013-03-02 02:02:00,26.3,20.0,30.12,NNE,30,1.0,-999.0,76,-99.99,,,0.00,weatherlink.com 1.10,2013-03-02 07:02:00,
2013-03-02 02:17:00,26.3,20.0,30.12,NNE,13,0.0,-999.0,76,-99.99,,,0.00,weatherlink.com 1.10,2013-03-02 07:17:00,
2013-03-02 02:32:00,26.5,20.0,30.11,NNE,14,0.0,-999.0,76,-99.99,,,0.00,weatherlink.com 1.10,2013-03-02 07:32:00,
2013-03-02 02:47:00,26.6,20.0,30.11,North,11,1.0,-999.0,75,-99.99,,,0.00,weatherlink.com 1.10,2013-03-02 07:47:00,
2013-03-02 03:02:00,26.6,20.0,30.10,NNW,338,1.0,-999.0,76,-99.99,,,0.00,weatherlink.com 1.10,2013-03-02 08:02:00,
2013-03-02 03:17:00,26.6,20.0,30.10,NNW,341,1.0,-999.0,76,-99.99,,,0.00,weatherlink.com 1.10,2013-03-02 08:17:00,
2013-03-02 03:32:00,26.6,20.0,30.09,NNW,333,3.0,-999.0,77,-99.99,,,0.00,weatherlink.com 1.10,2013-03-02 08:32:00,
2013-03-02 03:47:00,26.6,20.0,30.09,NNW,333,1.0,-999.0,76,-99.99,,,0.00,weatherlink.com 1.10,2013-03-02 08:47:00,
2013-03-02 04:03:00,26.7,20.0,30.10,NW,315,2.0,-999.0,76,-99.99,,,0.00,weatherlink.com 1.10,2013-03-02 09:03:00,
2013-03-02 04:18:00,26.7,20.0,30.09,NNW,334,9.0,-999.0,75,-99.99,,,0.00,weatherlink.com 1.10,2013-03-02 09:18:00,
2013-03-02 04:33:00,26.6,19.0,30.10,NNW,335,5.0,-999.0,74,-99.99,,,0.00,weatherlink.com 1.10,2013-03-02 09:33:00,
2013-03-02 04:48:00,26.5,19.0,30.09,NNW,331,4.0,-999.0,73,-99.99,,,0.00,weatherlink.com 1.10,2013-03-02 09:48:00,
2013-03-02 05:03:00,26.4,19.0,30.10,NNW,331,5.0,-999.0,72,-99.99,,,0.00,weatherlink.com 1.10,2013-03-02 10:03:00,
2013-03-02 05:18:00,26.4,19.0,30.09,NNW,333,2.0,-999.0,72,-99.99,,,0.00,weatherlink.com 1.10,2013-03-02 10:18:00,
2013-03-02 05:33:00,26.5,19.0,30.09,NNW,331,1.0,-999.0,73,-99.99,,,0.00,weatherlink.com 1.10,2013-03-02 10:33:00,
2013-03-02 05:48:00,26.5,19.0,30.09,NNW,338,3.0,-999.0,72,-99.99,,,0.00,weatherlink.com 1.10,2013-03-02 10:48:00,
2013-03-02 06:03:00,26.3,18.0,30.09,NNW,338,5.0,-999.0,72,-99.99,,,0.00,weatherlink.com 1.10,2013-03-02 11:03:00,
2013-03-02 06:18:00,26.2,19.0,30.10,NNW,335,3.0,-999.0,74,-99.99,,,0.00,weatherlink.com 1.10,2013-03-02 11:18:00,
2013-03-02 06:33:00,26.1,19.0,30.10,NNW,344,5.0,-999.0,75,-99.99,,,0.00,weatherlink.com 1.10,2013-03-02 11:33:00,
2013-03-02 06:48:00,25.8,18.0,30.10,NNE,19,3.0,-999.0,73,-99.99,,,0.00,weatherlink.com 1.10,2013-03-02 11:48:00,
2013-03-02 07:04:00,25.6,18.0,30.10,North,5,1.0,-999.0,73,-99.99,,,0.00,weatherlink.com 1.10,2013-03-02 12:04:00,
2013-03-02 07:19:00,25.3,18.0,30.11,NNE,12,2.0,-999.0,74,-99.99,,,0.00,weatherlink.com 1.10,2013-03-02 12:19:00,
2013-03-02 07:34:00,24.9,18.0,30.11,North,11,2.0,-999.0,76,-99.99,,,0.00,weatherlink.com 1.10,2013-03-02 12:34:00,
2013-03-02 07:49:00,24.7,18.0,30.11,North,11,3.0,-999.0,77,-99.99,,,0.00,weatherlink.com 1.10,2013-03-02 12:49:00,
2013-03-02 08:04:00,24.8,19.0,30.11,North,11,1.0,-999.0,79,-99.99,,,0.00,weatherlink.com 1.10,2013-03-02 13:04:00,
2013-03-02 08:19:00,25.1,19.0,30.11,NNW,329,2.0,-999.0,79,-99.99,,,0.00,weatherlink.com 1.10,2013-03-02 13:19:00,
2013-03-02 08:34:00,25.4,20.0,30.12,NW,325,2.0,-999.0,79,-99.99,,,0.00,weatherlink.com 1.10,2013-03-02 13:34:00,
2013-03-02 08:49:00,26.4,20.0,30.12,NNW,338,6.0,-999.0,77,-99.99,,,0.00,weatherlink.com 1.10,2013-03-02 13:49:00,
2013-03-02 09:04:00,27.1,20.0,30.12,NNW,331,5.0,-999.0,76,-99.99,,,0.00,weatherlink.com 1.10,2013-03-02 14:04:00,
2013-03-02 09:19:00,27.4,20.0,30.12,NW,321,3.0,-999.0,74,-99.99,,,0.00,weatherlink.com 1.10,2013-03-02 14:19:00,
2013-03-02 09:34:00,28.4,20.0,30.12,NNW,348,8.0,-999.0,71,-99.99,,,0.00,weatherlink.com 1.10,2013-03-02 14:34:00,
2013-03-02 09:49:00,27.6,20.0,30.12,North,360,3.0,-999.0,72,-99.99,,,0.00,weatherlink.com 1.10,2013-03-02 14:49:00,
2013-03-02 10:05:00,28.7,20.0,30.12,NW,309,10.0,-999.0,69,-99.99,,,0.00,weatherlink.com 1.10,2013-03-02 15:05:00,
2013-03-02 10:20:00,28.8,19.0,30.12,NNW,340,7.0,-999.0,66,-99.99,,,0.00,weatherlink.com 1.10,2013-03-02 15:20:00,
2013-03-02 10:35:00,29.0,19.0,30.12,NNW,335,3.0,-999.0,65,-99.99,,,0.00,weatherlink.com 1.10,2013-03-02 15:35:00,
2013-03-02 10:50:00,28.8,18.0,30.12,NW,322,8.0,-999.0,65,-99.99,,,0.00,weatherlink.com 1.10,2013-03-02 15:50:00,
2013-03-02 11:05:00,28.9,18.0,30.11,NNW,337,3.0,-999.0,64,-99.99,,,0.00,weatherlink.com 1.10,2013-03-02 16:05:00,
2013-03-02 11:20:00,29.3,17.0,30.11,NW,325,3.0,-999.0,61,-99.99,,,0.00,weatherlink.com 1.10,2013-03-02 16:20:00,
2013-03-02 11:35:00,30.9,18.0,30.11,NW,324,4.0,-999.0,59,-99.99,,,0.00,weatherlink.com 1.10,2013-03-02 16:35:00,
2013-03-02 11:50:00,30.6,18.0,30.11,NNW,338,7.0,-999.0,59,-99.99,,,0.00,weatherlink.com 1.10,2013-03-02 16:50:00,
2013-03-02 12:05:00,31.4,19.0,30.11,NNW,331,6.0,-999.0,61,-99.99,,,0.00,weatherlink.com 1.10,2013-03-02 17:05:00,
2013-03-02 12:20:00,31.9,20.0,30.11,NNW,329,4.0,-999.0,62,-99.99,,,0.00,weatherlink.com 1.10,2013-03-02 17:20:00,
2013-03-02 12:35:00,31.2,19.0,30.11,NW,320,9.0,-999.0,61,-99.99,,,0.00,weatherlink.com 1.10,2013-03-02 17:35:00,
2013-03-02 12:50:00,31.2,19.0,30.10,NW,310,10.0,-999.0,61,-99.99,,,0.00,weatherlink.com 1.10,2013-03-02 17:50:00,
2013-03-02 13:06:00,31.8,20.0,30.10,NNW,336,6.0,-999.0,61,-99.99,,,0.00,weatherlink.com 1.10,2013-03-02 18:06:00,
2013-03-02 13:21:00,32.4,20.0,30.09,NNW,328,5.0,-999.0,60,-99.99,,,0.00,weatherlink.com 1.10,2013-03-02 18:21:00,
2013-03-02 13:36:00,31.9,19.0,30.08,NNW,342,6.0,-999.0,59,-99.99,,,0.00,weatherlink.com 1.10,2013-03-02 18:36:00,
2013-03-02 13:51:00,32.1,20.0,30.08,North,360,4.0,-999.0,61,-99.99,,,0.00,weatherlink.com 1.10,2013-03-02 18:51:00,
2013-03-02 14:06:00,34.1,21.0,30.07,NNW,340,7.0,-999.0,60,-99.99,,,0.00,weatherlink.com 1.10,2013-03-02 19:06:00,
2013-03-02 14:21:00,32.8,21.0,30.07,WNW,303,2.0,-999.0,62,-99.99,,,0.00,weatherlink.com 1.10,2013-03-02 19:21:00,
2013-03-02 14:36:00,32.5,20.0,30.07,NW,313,12.0,-999.0,61,-99.99,,,0.00,weatherlink.com 1.10,2013-03-02 19:36:00,
2013-03-02 14:51:00,31.1,21.0,30.07,NNW,329,8.0,-999.0,65,-99.99,,,0.00,weatherlink.com 1.10,2013-03-02 19:51:00,
2013-03-02 15:06:00,30.6,20.0,30.07,NW,312,7.0,-999.0,64,-99.99,,,0.00,weatherlink.com 1.10,2013-03-02 20:06:00,
2013-03-02 15:21:00,31.7,21.0,30.07,NW,322,10.0,-999.0,64,-99.99,,,0.00,weatherlink.com 1.10,2013-03-02 20:21:00,
2013-03-02 15:36:00,30.9,20.0,30.07,NW,311,9.0,-999.0,65,-99.99,,,0.00,weatherlink.com 1.10,2013-03-02 20:36:00,
2013-03-02 15:51:00,31.3,20.0,30.07,NW,309,7.0,-999.0,64,-99.99,,,0.00,weatherlink.com 1.10,2013-03-02 20:51:00,
2013-03-02 16:07:00,31.3,21.0,30.07,NNW,335,6.0,-999.0,67,-99.99,,,0.00,weatherlink.com 1.10,2013-03-02 21:07:00,
2013-03-02 16:22:00,30.5,20.0,30.07,NW,315,7.0,-999.0,66,-99.99,,,0.00,weatherlink.com 1.10,2013-03-02 21:22:00,
2013-03-02 16:37:00,29.7,20.0,30.08,NNW,327,6.0,-999.0,67,-99.99,,,0.00,weatherlink.com 1.10,2013-03-02 21:37:00,
2013-03-02 16:52:00,30.0,21.0,30.08,North,355,9.0,-999.0,69,-99.99,,,0.00,weatherlink.com 1.10,2013-03-02 21:52:00,
2013-03-02 17:07:00,29.4,20.0,30.08,NW,318,6.0,-999.0,68,-99.99,,,0.00,weatherlink.com 1.10,2013-03-02 22:07:00,
2013-03-02 17:22:00,29.1,21.0,30.09,NNW,338,7.0,-999.0,71,-99.99,,,0.00,weatherlink.com 1.10,2013-03-02 22:22:00,
2013-03-02 17:37:00,28.7,20.0,30.09,NNW,333,11.0,-999.0,71,-99.99,,,0.00,weatherlink.com 1.10,2013-03-02 22:37:00,
2013-03-02 17:52:00,27.9,21.0,30.09,NW,324,6.0,-999.0,74,-99.99,,,0.00,weatherlink.com 1.10,2013-03-02 22:52:00,
2013-03-02 18:07:00,27.6,20.0,30.10,WNW,298,3.0,-999.0,72,-99.99,,,0.00,weatherlink.com 1.10,2013-03-02 23:07:00,
2013-03-02 18:22:00,27.5,20.0,30.10,NNW,329,3.0,-999.0,73,-99.99,,,0.00,weatherlink.com 1.10,2013-03-02 23:22:00,
2013-03-02 18:37:00,27.5,20.0,30.10,NNW,342,3.0,-999.0,73,-99.99,,,0.00,weatherlink.com 1.10,2013-03-02 23:37:00,
2013-03-02 18:52:00,27.6,21.0,30.10,NNW,329,5.0,-999.0,75,-99.99,,,0.00,weatherlink.com 1.10,2013-03-02 23:52:00,
2013-03-02 19:07:00,27.5,20.0,30.10,NNW,342,1.0,-999.0,74,-99.99,,,0.00,weatherlink.com 1.10,2013-03-03 00:07:00,
2013-03-02 19:22:00,27.6,20.0,30.10,NNE,15,3.0,-999.0,74,-99.99,,,0.00,weatherlink.com 1.10,2013-03-03 00:22:00,
2013-03-02 19:38:00,27.6,20.0,30.10,North,351,3.0,-999.0,73,-99.99,,,0.00,weatherlink.com 1.10,2013-03-03 00:38:00,
2013-03-02 19:53:00,27.6,20.0,30.10,NW,321,4.0,-999.0,74,-99.99,,,0.00,weatherlink.com 1.10,2013-03-03 00:53:00,
2013-03-02 20:08:00,27.7,21.0,30.10,NNW,333,4.0,-999.0,75,-99.99,,,0.00,weatherlink.com 1.10,2013-03-03 01:08:00,
2013-03-02 20:23:00,27.8,21.0,30.10,North,360,2.0,-999.0,76,-99.99,,,0.00,weatherlink.com 1.10,2013-03-03 01:23:00,
2013-03-02 20:38:00,27.8,21.0,30.10,NNW,336,3.0,-999.0,75,-99.99,,,0.00,weatherlink.com 1.10,2013-03-03 01:38:00,
2013-03-02 20:53:00,27.8,21.0,30.10,NNW,346,3.0,-999.0,75,-99.99,,,0.00,weatherlink.com 1.10,2013-03-03 01:53:00,
2013-03-02 21:08:00,27.9,21.0,30.10,North,355,3.0,-999.0,75,-99.99,,,0.00,weatherlink.com 1.10,2013-03-03 02:08:00,
2013-03-02 21:23:00,27.9,21.0,30.10,NNW,337,3.0,-999.0,75,-99.99,,,0.00,weatherlink.com 1.10,2013-03-03 02:23:00,
2013-03-02 21:38:00,27.8,21.0,30.11,NNW,327,3.0,-999.0,75,-99.99,,,0.00,weatherlink.com 1.10,2013-03-03 02:38:00,
2013-03-02 21:53:00,27.8,21.0,30.10,NNW,341,5.0,-999.0,75,-99.99,,,0.00,weatherlink.com 1.10,2013-03-03 02:53:00,
2013-03-02 22:08:00,27.7,21.0,30.11,NNW,347,3.0,-999.0,75,-99.99,,,0.00,weatherlink.com 1.10,2013-03-03 03:08:00,
2013-03-02 22:23:00,27.6,21.0,30.10,NNW,338,1.0,-999.0,75,-99.99,,,0.00,weatherlink.com 1.10,2013-03-03 03:23:00,
2013-03-02 22:38:00,27.6,21.0,30.10,NNW,338,1.0,-999.0,76,-99.99,,,0.00,weatherlink.com 1.10,2013-03-03 03:38:00,
2013-03-02 22:54:00,27.7,21.0,30.10,NW,326,3.0,-999.0,75,-99.99,,,0.00,weatherlink.com 1.10,2013-03-03 03:54:00,
2013-03-02 23:09:00,27.9,21.0,30.10,NNW,329,4.0,-999.0,75,-99.99,,,0.00,weatherlink.com 1.10,2013-03-03 04:09:00,
2013-03-02 23:24:00,27.9,21.0,30.10,NNW,340,4.0,-999.0,74,-99.99,,,0.00,weatherlink.com 1.10,2013-03-03 04:24:00,
2013-03-02 23:39:00,28.0,21.0,30.09,NNW,335,4.0,-999.0,74,-99.99,,,0.00,weatherlink.com 1.10,2013-03-03 04:39:00,
2013-03-02 23:54:00,27.9,20.0,30.09,NNW,327,4.0,-999.0,73,-99.99,,,0.00,weatherlink.com 1.10,2013-03-03 04:54:00,